Tracking 35280 objects as of 7-Sep-2026
HD Live streaming from Space Station
objects crossing your sky now

TIANQI 17

Track TIANQI 17 now!
10-day predictions


NORAD ID: 64059
Int'l Code: 2025-105B
Launch date: May 19, 2025
Source: People's Republic of China (PRC)
Launch site: Yellow Sea Launch Area, China (YSLA)
Your satellite tracking list
Your tracking list is empty




NASA's NSSDC Master Catalog

Two Line Element Set (TLE):
1 64059U 25105B   26249.83093914 -.00000004  00000-0  85682-4 0  9995
2 64059  44.9815  18.4215 0009183  50.4926 309.6717 13.99177205 66633
Source of the keplerian elements: AFSPC